{"data":{"norad_id":60587,"epoch":"2026-05-25T04:28:26.796000Z","epoch_age_seconds":65716,"freshness":"FRESH","line1":"1 60587U 24150E   26145.18642125 -.00000898  00000+0 -15470-4 0  9992","line2":"2 60587  53.1626 310.9860 0001260  67.7834 292.3303 15.34372453 99683","mean_motion":15.34372453,"eccentricity":0.000126,"inclination_deg":53.1626,"raan_deg":310.986,"arg_perigee_deg":67.7834,"mean_anomaly_deg":292.3303,"bstar":-1.547e-5,"rev_number":9968,"period_min":93.849442955295,"perigee_km":461.92316073458,"apogee_km":463.64707310805,"semimajor_km":6840.9221169213,"source":"CELESTRAK","updated_at":"2026-05-25T13:38:19.278833Z"}}